09.05.2024;03:00;7
09.05.2024;02:00;8
09.05.2024;01:00;8
09.05.2024;00:00;8
08.05.2024;23:00;8
08.05.2024;22:00;8
08.05.2024;21:00;10
08.05.2024;20:00;14
08.05.2024;19:00;9
08.05.2024;18:00;7
08.05.2024;17:00;7
08.05.2024;16:00;7
08.05.2024;15:00;8
08.05.2024;14:00;7
08.05.2024;13:00;8
08.05.2024;12:00;8
08.05.2024;11:00;7
08.05.2024;10:00;8
08.05.2024;09:00;13
08.05.2024;08:00;14
08.05.2024;07:00;5
08.05.2024;06:00;3
08.05.2024;05:00;2
08.05.2024;04:00;3
08.05.2024;03:00;4
08.05.2024;02:00;3
08.05.2024;01:00;3
08.05.2024;00:00;4
07.05.2024;23:00;5
07.05.2024;22:00;7
07.05.2024;21:00;6
07.05.2024;20:00;4
07.05.2024;19:00;7
07.05.2024;18:00;5
07.05.2024;17:00;4
07.05.2024;16:00;4
07.05.2024;15:00;4
07.05.2024;14:00;3
07.05.2024;13:00;4
07.05.2024;12:00;3
07.05.2024;11:00;7
07.05.2024;10:00;10
07.05.2024;09:00;6
07.05.2024;08:00;7
07.05.2024;07:00;2
07.05.2024;06:00;2
07.05.2024;05:00;2
07.05.2024;04:00;2
